STARLINK-33986, 63870

Orbit data source: Space-Track

STARLINK-33986, 63870 is a payload satellite owned by SpaceX/Seattle (US) in LEO that was launched on Sat, 10 May 2025 UTC via an FALCON 9 launch vehicle from the Air Force Western Test Range (AFWTR). Payload-class satellites include a variety of spacecraft equipped with specific instruments for various scientific and technological missions. These include communications satellites like Starlink; space stations such as the ISS; scientific satellites like the Hubble; Earth observation satellites from companies like Planet Labs, Umbra, and HawkEye 360; GPS; miniature CubeSats for education and research; and military/defense satellites.

Loading next visibility...
Identifier
63870, 2025-094G
Orbit
LEO
Country
Flag of USUS
Related business
Manufacturer
SpaceX/Seattle
Mission
Operational Commercial Communications
Bus & Motor
STARLINK V2MO, Unknown motor
Mass
575 kg wet, ~530 kg dry
Launch date (UTC)
2025-05-10 (1 year ago)
Launch vehicle
FALCON 9
Launch site
Air Force Western Test Range (AFWTR)
Object type
Payload
Rocket body
Debris
Shape & HBR
Box + 2 Pan, 17.7 m
Radar Cross Section
36.964 m², Large (>1 m²)

Expand to show TLE details & history
Last TLE update: 12 hours ago

TLE from 12 hours ago
0 STARLINK-33986
1 63870U 25094G   26171.36494024  .00187327  00000-0  15043-1 0  9995
2 63870  70.0023 335.5447 0006689 285.7565  74.2856 14.98955029 62581
Epoch: 2026-06-20T08:45Z
TLE epoch observation values (Epoch: 2026-06-20T08:45:30.836Z)
Latitude
-0.00008°
Longitude
-64.41443°
Altitude
571.292 km
Speed
7.576 km/s
True Right ascension
22h 22m 10s
True Declination
0° 00' 00"
Sunlit
Object was in daylight at epoch
Visualization orbit readout
Latitude
Unknown
Longitude
Unknown
Altitude
Unknown
Speed
Unknown
Apparent Right ascension
Unknown
Apparent Declination
Unknown
Sunlit
N/A
Visualization observer readout
Local Sidereal Time
07:17:39
Azimuth
Unknown
Elevation
Unknown
Doppler factor
Unknown
Orbital elements
Apogee altitude
572.717 km
Perigee altitude
563.425 km
Semi-major axis
6,946.208 km
Eccentricity
0.00067
Inclination
70.0023°
RAAN
335.5447°
Arg. of periapsis
285.7565°
True anomaly
74.3594°
Mean anomaly
74.2856°
Eccentric anomaly
74.3225°
Mean motion
3.74905 °/min
Orbital period
96.02 mins
BSTAR
0.015043
Loading maneuver chart data...
Computing Atmospheric mass density...
Loading historical data...
Loading historical data...
Loading historical data...
Loading historical data...
Loading historical data...
Loading historical data...
Loading historical data...

Documentation

Showing up to 5 results
|